THAICOM 8

导读 | 星芒AI

THAICOM 8 是一颗由泰国国际通信卫星组织(Thaicom)运营的高吞吐量通信卫星,于2017年发射。该卫星位于东经78.5度轨道位置,主要提供宽带互联网、电视广播和企业通信服务,覆盖东南亚、南亚及部分东亚地区。THAICOM 8 采用先进技术,具备多波束和频率复用能力,显著提升数据传输效率,支持数字内容分发和远程通信应用,为区域通信基础设施建设作出重要贡献。

基本信息
目录编号:
41552
目录名称:
THAICOM 8
国际标识:
2016-031A
轨道中心:
EARTH
卫星名称:
THAICOM 8
卫星全名:
--
卫星状态:
在轨 (已飞行3445 天)
发射日期:
2016-05-27 UTC
国别 :
(TH)
星等 :
--
轨道信息
数据来源 国际轨道数据 AOE轨道数据
星历时间 2025-11-01T02:28:42+0800
1天前
查看轨道信息
2025-11-02T01:00:00+0800
2小时前
查看轨道信息
半长轴 42165.037km 42165.177km
偏心率 0.0001988 0.0002366
轨道倾角 0.091° 0.093°
近地点辐角 216.541° 218.463°
升交点赤经 45.568° 47.858°
平近点角 133.914° 108.449°
近地点 35778.519km 35777.065km
远地点 35795.285km 35797.019km
周期 1436.112分钟 1436.120分钟
每日圈数 1.002707 1.002702
详细信息
使用方式:
暂无
2D轨道图
3D轨道图
轨道高度分析图
轨道倾角分析图
轨道综合分析图
查看轨道综合分析图